Weather Roundup
Issued by NWS Chicago, IL

Home | Current Version | Previous Version | Graphics & Text | Print | Product List | Glossary On
Versions: 1 2 3 4 5 6 7 8 9 10 11 12 13 14 15 16 17 18 19 20 21 22 23 24 25 26 27 28 29 30 31 32 33 34 35 36 37 38 39 40 41 42 43 44 45 46 47 48 49 50
000
NZUS59 KLOT 012258
HRRLOT

CHICAGO AREA WEATHER ROUNDUP
NATIONAL WEATHER SERVICE CHICAGO/ROMEOVILLE IL
600 PM CDT MON SEP 01 2014

NOTE: "FAIR" INDICATES FEW OR NO CLOUDS BELOW 12,000 FEET WITH NO
SIGNIFICANT WEATHER AND/OR OBSTRUCTIONS TO VISIBILITY.

* THESE STATIONS ARE NOT UNDER NWS QUALITY CONTROL. THEY ALSO MAY NOT
  REPORT WEATHER SUCH AS PRECIPITATION OR FOG.

ILZ005-006-012>014-019>023-020000-
NORTHEAST ILLINOIS

CITY           SKY/WX    TMP DP  RH WIND       PRES   REMARKS
OHARE          MOSUNNY   81  63  54 SW16G25   29.77R HX  82
MIDWAY         PTSUNNY   83  67  58 SW21      29.78R HX  85
AURORA         SUNNY     80  65  59 SW16G23   29.79S HX  82
WAUKEGAN       MOSUNNY   80  65  59 SW14G21   29.75R HX  82
DUPAGE AIRPORT SUNNY     80  65  59 SW13G25   29.78S HX  82
WHEELING       MOSUNNY   82  63  52 SW15G25   29.78R HX  83
NORTHERLY IS     N/A     82  62  50 S10         N/A  HX  83
$$

WIZ051-052-058>065-066-070>072-020000-
SOUTHEAST WISCONSIN

CITY           SKY/WX    TMP DP  RH WIND       PRES   REMARKS
MILWAUKEE      PTSUNNY   80  63  55 W13       29.73R HX  81
WAUKESHA       PTSUNNY   73  63  68 SW15G23   29.75R
$$

INZ001>003-010>013-019-020-020000-
NORTHWEST INDIANA

CITY           SKY/WX    TMP DP  RH WIND       PRES   REMARKS
GARY*          PTSUNNY   82  64  54 SW12G28   29.79S HX  84
MICHIGAN CITY* NOT AVBL
RENSSELAER*    NOT AVBL
$$

LMZ740>746-020000-
SOUTHERN LAKE MICHIGAN

STATION/POSITION TIME  SKY/WX   TEMP WIND        PRES    VSBY
                                AIR  DIR/SP/G
                 (UTC)          (F)  (DEG/KT/KT) (MB)    (MI)
HARRISON CRIB    2200            80  240/ 14/ 18   N/A
BURNHAM HARBOR   2200            81  240/  8/ 16   N/A
CALUMET HARBOR   2200            81  220/  8/ 15 1007.3R
BURNS HARBOR     NOT AVBL
MICHIGAN CITY    2200            78  230/ 17/ 20   N/A
$$

ABBREVIATIONS USED IN REMARKS
   TC - TEMPERATURE IN CELSIUS
  WCI - WIND CHILL INDEX
   HX - HEAT INDEX
  VSB - VISIBILITY
$$



USA.gov is the U.S. government's official web portal to all federal, state and local government web resources and services.